Cherokee, North Carolina, United States (28719)
Lat: 35.47N, Lon: 83.31W
Wx Zone: NCZ051
Local Info
Past Weather Observations for Today

NOTE: This archive is for the closest National Weather Service station to Cherokee. Information may differ from the station used for current weather conditions.

Click here for Long-term Archive

Time Weather Temperature Dewpoint Humidity Pressure Winds Precip Visibility
13:05
Clear
70°F / 21°C 46°F / 8°C 43% 30.04 in
(1017 mb)
NW 3.5 mph
(NW 6 kph)
- 10SM
12:45
Partly Cloudy
68°F / 20°C 46°F / 8°C 46% 30.04 in
(1017 mb)
Calm - 10SM
12:25
Partly Cloudy
68°F / 20°C 46°F / 8°C 46% 30.04 in
(1017 mb)
NW 4.6 mph
(NW 7 kph)
- 10SM
12:05
Clear
70°F / 21°C 46°F / 8°C 43% 30.04 in
(1017 mb)
ENE 4.6 mph
(ENE 7 kph)
- 10SM
11:45
Clear
66°F / 19°C 46°F / 8°C 49% 30.04 in
(1017 mb)
N 3.5 mph
(N 6 kph)
- 10SM
11:25
Clear
64°F / 18°C 48°F / 9°C 56% 30.04 in
(1017 mb)
Calm - 10SM
11:05
Clear
64°F / 18°C 48°F / 9°C 56% 30.04 in
(1017 mb)
SSW 3.5 mph
(SSW 6 kph)
- 10SM
10:45
Clear
63°F / 17°C 48°F / 9°C 59% 30.04 in
(1017 mb)
Calm - 10SM
10:25
Clear
61°F / 16°C 48°F / 9°C 63% 30.04 in
(1017 mb)
Calm - 10SM
10:05
Clear
59°F / 15°C 48°F / 9°C 68% 30.04 in
(1017 mb)
SSE 3.5 mph
(SSE 6 kph)
- 10SM
09:45
Clear
59°F / 15°C 48°F / 9°C 68% 30.06 in
(1018 mb)
Calm - 10SM
09:25
Clear
57°F / 14°C 50°F / 10°C 77% 30.04 in
(1017 mb)
Calm - 10SM
09:05
Clear
55°F / 13°C 48°F / 9°C 77% 30.06 in
(1018 mb)
Calm - 10SM
08:45
Clear
54°F / 12°C N/A 82% 30.06 in
(1018 mb)
Calm - 10SM
08:25
Clear
52°F / 11°C 46°F / 8°C 82% 30.06 in
(1018 mb)
Calm - 10SM
08:05
Clear
50°F / 10°C 46°F / 8°C 88% 30.04 in
(1017 mb)
Calm - 10SM
07:45
Clear
48°F / 9°C 46°F / 8°C 94% 30.04 in
(1017 mb)
Calm - 10SM
07:25
Clear
46°F / 8°C 45°F / 7°C 93% 30.04 in
(1017 mb)
Calm - 7SM
07:05
Partly Cloudy
Fog And Mist
45°F / 7°C 45°F / 7°C 100% 30.04 in
(1017 mb)
Calm - 3SM
06:45
Partly Cloudy
Fog And Mist
45°F / 7°C 43°F / 6°C 93% 30.04 in
(1017 mb)
Calm - 5SM
06:25
Mostly Cloudy
Mostly Clou 1000 Dy
45°F / 7°C 45°F / 7°C 100% 30.04 in
(1017 mb)
Calm - 7SM
06:05
Overcast
46°F / 8°C 45°F / 7°C 93% 30.04 in
(1017 mb)
Calm - 10SM
05:45
Overcast
46°F / 8°C 45°F / 7°C 93% 30.04 in
(1017 mb)
Calm - 10SM
05:25
Overcast
46°F / 8°C 45°F / 7°C 93% 30.04 in
(1017 mb)
Calm - 10SM
05:05
Overcast
46°F / 8°C 45°F / 7°C 93% 30.04 in
(1017 mb)
Calm - 10SM
04:45
Overcast
46°F / 8°C 45°F / 7°C 93% 30.04 in
(1017 mb)
Calm - 10SM
04:25
Overcast
46°F / 8°C 45°F / 7°C 93% 30.04 in
(1017 mb)
Calm - 10SM
04:05
Overcast
45°F / 7°C 45°F / 7°C 100% 30.04 in
(1017 mb)
Calm - 10SM
03:45
Overcast
45°F / 7°C 43°F / 6°C 93% 30.04 in
(1017 mb)
Calm - 10SM
03:25
Overcast
45°F / 7°C 43°F / 6°C 93% 30.04 in
(1017 mb)
Calm - 7SM
03:05
Mostly Cloudy
45°F / 7°C 43°F / 6°C 93% 30.04 in
(1017 mb)
Calm - 7SM
02:45
Partly Cloudy
45°F / 7°C 43°F / 6°C 93% 30.04 in
(1017 mb)
Calm - 10SM
02:25
Clear
45°F / 7°C 43°F / 6°C 93% 30.04 in
(1017 mb)
Calm - 7SM
02:05
Clear
45°F / 7°C 45°F / 7°C 100% 30.04 in
(1017 mb)
Calm - 7SM
01:45
Clear
45°F / 7°C 45°F / 7°C 100% 30.04 in
(1017 mb)
Calm - 10SM
01:25
Clear
45°F / 7°C 43°F / 6°C 93% 30.04 in
(1017 mb)
Calm - 7SM
01:05
Clear
46°F / 8°C 45°F / 7°C 93% 30.04 in
(1017 mb)
Calm - 10SM
00:45
Clear
46°F / 8°C 45°F / 7°C 93% 30.04 in
(1017 mb)
Calm - 7SM
00:25
Clear
46°F / 8°C 45°F / 7°C 93% 30.04 in
(1017 mb)
Calm - 7SM
00:05
Clear
46°F / 8°C 46°F / 8°C 100% 30.04 in
(1017 mb)
Calm - 10SM
Time Weather Temperature Dewpoint Humidity Pressure Winds Precip Visibility


Weather for websites

WeatherForYou.com, LLC is not responsible for any damages or problems caused by this service. Current weather conditions are obtained from the closest station including government and personal stations which may have varying degrees of accuracy. Weather forecasts are derived from the NOAA NDFD. Like all things, this site belongs to Jesus Christ... He just trusts us to maintain it. If you have any questions or comments email webmaster@weatherforyou.com

Copyright © 2016, WeatherForYou.com LLC. All rights reserved.